When you browse on this site, cookies collect data to enhance your experience and personalize the content and advertising you see.
Visit our Privacy Policy to learn more. By continuing to use the site, you agree to this use of cookies and data.

Meteo orario Velikaya Novoselka

Oggi, 27 Settembre, Domenica

Tempo Temperatura Precipitazioni Vento Pressione Umidità
00:00 +22°C° 0 mm 9 m/s 749 mm Hg 41%
01:00 +21°C° 0 mm 8 m/s 749 mm Hg 43%
02:00 +20°C° 0 mm 8 m/s 749 mm Hg 43%
03:00 +20°C° 0 mm 8 m/s 749 mm Hg 46%
04:00 +18°C° 0 mm 8 m/s 750 mm Hg 48%
05:00 +17°C° 0 mm 8 m/s 750 mm Hg 50%
06:00 +17°C° 0 mm 9 m/s 750 mm Hg 51%
07:00 +18°C° 0 mm 9 m/s 750 mm Hg 51%
08:00 +18°C° 0 mm 9 m/s 751 mm Hg 50%
09:00 +21°C° 0 mm 9 m/s 751 mm Hg 46%
10:00 +23°C° 0 mm 9 m/s 751 mm Hg 43%
11:00 +26°C° 0 mm 9 m/s 751 mm Hg 39%
12:00 +26°C° 0 mm 9 m/s 751 mm Hg 39%
13:00 +27°C° 0 mm 9 m/s 751 mm Hg 38%
14:00 +27°C° 0 mm 8 m/s 751 mm Hg 38%
15:00 +27°C° 0.2 mm 7 m/s 751 mm Hg 40%
16:00 +26°C° 0.2 mm 6 m/s 751 mm Hg 42%
17:00 +26°C° 0.2 mm 5 m/s 751 mm Hg 44%
18:00 +25°C° 0.2 mm 5 m/s 751 mm Hg 46%
19:00 +23°C° 0.2 mm 5 m/s 752 mm Hg 48%
20:00 +22°C° 0.2 mm 5 m/s 752 mm Hg 51%
21:00 +21°C° 0.2 mm 5 m/s 752 mm Hg 53%
22:00 +21°C° 0.2 mm 5 m/s 753 mm Hg 56%
23:00 +20°C° 0.2 mm 5 m/s 753 mm Hg 59%

Domani, 28 Settembre, Lunedi

Tempo Temperatura Precipitazioni Vento Pressione Umidità
00:00 +19°C° 0 mm 4 m/s 753 mm Hg 61%
01:00 +19°C° 0 mm 4 m/s 753 mm Hg 63%
02:00 +18°C° 0 mm 4 m/s 754 mm Hg 65%
03:00 +17°C° 0 mm 4 m/s 754 mm Hg 68%
04:00 +17°C° 0 mm 4 m/s 754 mm Hg 70%
05:00 +16°C° 0 mm 3 m/s 755 mm Hg 72%
06:00 +17°C° 0 mm 4 m/s 755 mm Hg 67%
07:00 +18°C° 0 mm 4 m/s 755 mm Hg 63%
08:00 +19°C° 0 mm 5 m/s 755 mm Hg 58%
09:00 +21°C° 0 mm 4 m/s 755 mm Hg 54%
10:00 +23°C° 0 mm 4 m/s 756 mm Hg 49%
11:00 +25°C° 0 mm 4 m/s 756 mm Hg 44%
12:00 +26°C° 0 mm 4 m/s 755 mm Hg 42%
13:00 +27°C° 0 mm 4 m/s 755 mm Hg 40%
14:00 +28°C° 0 mm 4 m/s 755 mm Hg 38%
15:00 +27°C° 0 mm 3 m/s 755 mm Hg 40%
16:00 +25°C° 0 mm 3 m/s 755 mm Hg 42%
17:00 +24°C° 0 mm 3 m/s 755 mm Hg 44%
18:00 +22°C° 0 mm 3 m/s 755 mm Hg 44%
19:00 +21°C° 0 mm 3 m/s 755 mm Hg 45%
20:00 +20°C° 0 mm 4 m/s 755 mm Hg 46%
21:00 +20°C° 0 mm 4 m/s 755 mm Hg 45%
22:00 +20°C° 0 mm 5 m/s 755 mm Hg 44%
23:00 +20°C° 0 mm 5 m/s 755 mm Hg 44%

Dopodomani, 29 Settembre, Martedi

Tempo Temperatura Precipitazioni Vento Pressione Umidità
00:00 +19°C° 0 mm 5 m/s 754 mm Hg 47%
01:00 +19°C° 0 mm 6 m/s 754 mm Hg 51%
02:00 +17°C° 0 mm 6 m/s 754 mm Hg 55%
03:00 +16°C° 0 mm 6 m/s 754 mm Hg 57%
04:00 +15°C° 0 mm 6 m/s 754 mm Hg 58%
05:00 +15°C° 0 mm 6 m/s 754 mm Hg 60%
06:00 +15°C° 0 mm 7 m/s 754 mm Hg 60%
07:00 +16°C° 0 mm 7 m/s 754 mm Hg 60%
08:00 +16°C° 0 mm 7 m/s 754 mm Hg 60%
09:00 +17°C° 0 mm 7 m/s 753 mm Hg 57%
10:00 +18°C° 0 mm 7 m/s 753 mm Hg 54%
11:00 +21°C° 0 mm 7 m/s 753 mm Hg 50%
12:00 +21°C° 0.3 mm 7 m/s 753 mm Hg 47%
13:00 +22°C° 0.3 mm 7 m/s 752 mm Hg 45%
14:00 +22°C° 0.3 mm 7 m/s 752 mm Hg 42%
15:00 +22°C° 0 mm 7 m/s 751 mm Hg 40%
16:00 +22°C° 0 mm 6 m/s 751 mm Hg 39%
17:00 +22°C° 0 mm 6 m/s 751 mm Hg 38%
18:00 +22°C° 0 mm 6 m/s 750 mm Hg 39%
19:00 +21°C° 0 mm 7 m/s 750 mm Hg 39%
20:00 +21°C° 0 mm 8 m/s 749 mm Hg 39%
21:00 +21°C° 0 mm 8 m/s 749 mm Hg 40%
22:00 +21°C° 0 mm 8 m/s 749 mm Hg 41%
23:00 +20°C° 0 mm 8 m/s 748 mm Hg 41%

30 Settembre, Mercoledi

Tempo Temperatura Precipitazioni Vento Pressione Umidità
00:00 +20°C° 0 mm 8 m/s 748 mm Hg 44%
01:00 +18°C° 0 mm 8 m/s 748 mm Hg 47%
02:00 +17°C° 0 mm 8 m/s 748 mm Hg 49%
03:00 +16°C° 0 mm 8 m/s 747 mm Hg 52%
04:00 +16°C° 0 mm 9 m/s 747 mm Hg 55%
05:00 +15°C° 0 mm 9 m/s 747 mm Hg 58%
06:00 +15°C° 0.1 mm 9 m/s 747 mm Hg 57%
07:00 +16°C° 0.1 mm 9 m/s 747 mm Hg 56%
08:00 +16°C° 0.1 mm 10 m/s 747 mm Hg 55%
09:00 +17°C° 0 mm 10 m/s 747 mm Hg 52%
10:00 +19°C° 0 mm 10 m/s 746 mm Hg 48%
11:00 +21°C° 0 mm 10 m/s 746 mm Hg 45%
12:00 +22°C° 0.1 mm 9 m/s 746 mm Hg 43%
13:00 +22°C° 0.1 mm 9 m/s 746 mm Hg 41%
14:00 +22°C° 0.1 mm 9 m/s 745 mm Hg 39%
15:00 +21°C° 0.8 mm 7 m/s 745 mm Hg 45%
16:00 +20°C° 0.8 mm 6 m/s 745 mm Hg 50%
17:00 +19°C° 0.8 mm 4 m/s 745 mm Hg 56%
18:00 +19°C° 0.6 mm 6 m/s 745 mm Hg 56%
19:00 +18°C° 0.6 mm 7 m/s 745 mm Hg 55%
20:00 +18°C° 0.6 mm 8 m/s 745 mm Hg 55%
21:00 +18°C° 0.2 mm 9 m/s 745 mm Hg 58%
22:00 +18°C° 0.2 mm 10 m/s 745 mm Hg 61%
23:00 +18°C° 0.2 mm 11 m/s 745 mm Hg 63%

1 Ottobre, Giovedi

Tempo Temperatura Precipitazioni Vento Pressione Umidità
00:00 +17°C° 0.1 mm 10 m/s 746 mm Hg 62%
01:00 +17°C° 0.1 mm 9 m/s 746 mm Hg 60%
02:00 +16°C° 0.1 mm 8 m/s 746 mm Hg 59%
03:00 +15°C° 0 mm 7 m/s 746 mm Hg 63%
04:00 +15°C° 0 mm 7 m/s 747 mm Hg 67%
05:00 +14°C° 0 mm 6 m/s 747 mm Hg 71%
06:00 +15°C° 0 mm 7 m/s 747 mm Hg 67%
07:00 +16°C° 0 mm 7 m/s 747 mm Hg 63%
08:00 +16°C° 0 mm 7 m/s 748 mm Hg 60%
09:00 +17°C° 0 mm 7 m/s 748 mm Hg 58%
10:00 +20°C° 0 mm 7 m/s 748 mm Hg 57%
11:00 +21°C° 0 mm 7 m/s 748 mm Hg 55%
12:00 +21°C° 0 mm 7 m/s 748 mm Hg 52%
13:00 +22°C° 0 mm 7 m/s 748 mm Hg 49%
14:00 +22°C° 0 mm 7 m/s 748 mm Hg 46%
15:00 +22°C° 0 mm 6 m/s 748 mm Hg 49%
16:00 +21°C° 0 mm 5 m/s 748 mm Hg 51%
17:00 +20°C° 0 mm 4 m/s 748 mm Hg 53%
18:00 +20°C° 0 mm 4 m/s 748 mm Hg 52%
19:00 +19°C° 0 mm 4 m/s 748 mm Hg 51%
20:00 +19°C° 0 mm 3 m/s 748 mm Hg 50%
21:00 +19°C° 0.3 mm 4 m/s 748 mm Hg 53%
22:00 +18°C° 0.3 mm 4 m/s 748 mm Hg 55%
23:00 +16°C° 0.3 mm 5 m/s 748 mm Hg 58%

2 Ottobre, Venerdi

Tempo Temperatura Precipitazioni Vento Pressione Umidità
00:00 +16°C° 0.1 mm 5 m/s 748 mm Hg 57%
01:00 +16°C° 0.1 mm 6 m/s 748 mm Hg 57%
02:00 +15°C° 0.1 mm 6 m/s 748 mm Hg 56%
03:00 +15°C° 0.1 mm 6 m/s 748 mm Hg 58%
04:00 +15°C° 0.1 mm 6 m/s 748 mm Hg 59%
05:00 +15°C° 0.1 mm 6 m/s 748 mm Hg 61%
06:00 +15°C° 0.2 mm 6 m/s 749 mm Hg 59%
07:00 +15°C° 0.2 mm 6 m/s 749 mm Hg 58%
08:00 +16°C° 0.2 mm 7 m/s 749 mm Hg 57%
09:00 +17°C° 0.1 mm 6 m/s 749 mm Hg 53%
10:00 +19°C° 0.1 mm 6 m/s 749 mm Hg 50%
11:00 +20°C° 0.1 mm 6 m/s 749 mm Hg 47%
12:00 +21°C° 0.1 mm 6 m/s 749 mm Hg 46%
13:00 +21°C° 0.1 mm 5 m/s 749 mm Hg 45%
14:00 +22°C° 0.1 mm 5 m/s 748 mm Hg 45%
15:00 +21°C° 0.1 mm 4 m/s 748 mm Hg 49%
16:00 +20°C° 0.1 mm 3 m/s 748 mm Hg 53%
17:00 +19°C° 0.1 mm 2 m/s 748 mm Hg 57%
18:00 +18°C° 0.2 mm 2 m/s 749 mm Hg 63%
19:00 +18°C° 0.2 mm 2 m/s 749 mm Hg 69%
20:00 +17°C° 0.2 mm 2 m/s 749 mm Hg 75%
21:00 +17°C° 1 mm 2 m/s 749 mm Hg 80%
22:00 +16°C° 1 mm 2 m/s 749 mm Hg 84%
23:00 +16°C° 1 mm 3 m/s 749 mm Hg 88%
Mostrare altro